CZ-6A DEB

Satellite information

Favourite Embed

Satellite Type and Status

DEBRISIN ORBIT

Key statistics

Satellite CZ-6A DEB at a glance.

Uptime

1029

Days in orbit

Revolutions

≈ 14.7

Per day

Orbit

SSO

Sun Synchronous Orbit

Inclination

98.5

Latest

Satellite identification and parameters

Extended collection of information and parameters for CZ-6A DEB.

Object identification

Identified? True

Debris? True

Object name: CZ-6A DEB

International designator: 2022-151MS

Object number (NORAD): 54592

Object ID (CCSDS): 54592

Country: PEOPLES REPUBLIC OF CHINA (PRC)

Current information (Y/N): Y

RCS size: SMALL

Orbital parameters

Period: 97.986 minutes

Inclination: 98.546 deg

SMA: 7040.486 km

Apoapsis: 704.321 km

Periapsis: 620.381 km

RAAN: 279.3694 deg

Eccentricy: 0.00596121

Argument of periapsis: 99.2591 deg

Mean anomaly: 261.5362 deg

Mean motion: 14.69598815 rev/day

Mean motion (dot): 0.00028884 rev/day2

B* drag term: 0.004720824 1/REarth

Two-line elements (TLE)

Creation date: Sept. 4, 2025, 10:13 a.m.

Reference frame: TEME

Reference center: EARTH

Epoch: Sept. 4, 2025, 1:38 a.m. UTC

TLE line 0: 0 CZ-6A DEB

TLE line 1: 1 54592U 22151MS 25247.06849520 .00028884 00000-0 47208-2 0 9993

TLE line 2: 2 54592 98.5460 279.3694 0059612 99.2591 261.5362 14.69598815147831

Live tracking on map

Real-time ground track for satellite CZ-6A DEB.

In-orbit conjunctions

A list of the most updated potential collisions computed for object CZ-6A DEB.

Target Orbit TCA Probability of collision Miss distance Type
XSS 10 LEO 2025-08-11 16:46:04 0.0004885655 451.0 (m) PAYLOAD
FENGYUN 1C DEB SSO 2024-07-04 14:53:55 0.0001135697 71.0 (m) DEBRIS

Associated space launch

Chinese satellite reported for atmospheric/ocean/environmental/spatial parameter research purposes, details TBD.

CZ-6A DEB was lifted into orbit during the mission ‘Long March 6A | Yunhai 3’, on board a Long March 6A space rocket.

The launch took place on Nov. 11, 2022, 10:52 p.m. from Launch Complex 9A.

For more information about the launch, click the button.

Launch to space Long March 6A | Yunhai 3
Long March 6A | Yunhai 3

Agency: N/A

Status: Launch Successful

Launch date: Nov. 11, 2022, 10:52 p.m. UTC

Rocket: Long March 6A

Launch pad: Launch Complex 9A

Location: Taiyuan Satellite Launch Center, People's Republic of China

...

Latest news about this satellite

There are no fresh news available about this satellite. Check back as we update our databases every day.


Newsletter sign-up

Weekly statistics, charts and insights to help you stay on top of the space industry.